Location: Riverside Cemetery
(38.3047°N, 99.7773°W)
Time: 19:25:29
(UTC+00:00)

CZ-2C R/B - Pass Details

Date: 19 September 2020
Orbit: 785 x 870 km, 98.2° (Epoch: 22 October)

Event Time Altitude Azimuth Distance (km) Brightness Sun altitude
Rises 02:05:20 0° 16° (NNE) 3,420 5.9 -17.1°
Reaches altitude 10° 02:07:44 10° 19° (NNE) 2,491 5.1 -17.5°
Maximum altitude 02:13:14 64° 101° (E) 951 2.7 -18.5°
Drops below altitude 10° 02:18:47 10° 183° (S) 2,505 5.0 -19.6°
Sets 02:21:11 0° 186° (S) 3,440 5.7 -20.0°
